sat.trackr.live / text

‹ back to catalog

LEMUR-2-CLARA

NORAD 68483 · 2026-067BV

PAYLOAD ACTIVE UNKNOWN

§ Identity

Operator
Country
LUXE
Launch date
2026-03-30
Launch site
AFWTR
Launch vehicle
Mass (kg)
RCS (m²)

External: N2YO · Heavens-Above · Gunter

§ Orbital elements

Epoch: 2026-09-19T07:24:05.365152Z

Period
96.43 min
Inclination
97.7746°
Eccentricity
0.0003033
Mean motion
14.93261743 rev/d
Perigee alt
585.7 km
Apogee alt
589.9 km
Semi-major
6,965.9 km
B*
2.6693e-4
RAAN
219.5126°
Arg perigee
11.5425°
Mean anomaly
348.5863°
Rev number
2,577

§ Raw data

LEMUR-2-CLARA1 68483U 26067BV  26262.30839543  .00002736  00000+0  26693-3 0  99992 68483  97.7746 219.5126 0003033  11.5425 348.5863 14.93261743 25772

JSON: /api/v1/satellites/68483 · /tle

For live sub-satellite position, see the globe view (requires WebGL).

§ Visibility from observer

Set your observer location to see the next 7 days of passes ≥ 10°. The values pass through the URL so the page stays shareable.

No JS? Fill the form by hand. The geolocation button needs JavaScript.